• In Spain
  • List of Countries
  • For 7 days
  • Water Temperature
  • Satellite Maps
  • Weather Map
  • Weather Widgets
  • user-avatar
    Login

    Hourly Weather Banja Luka

    Today, 13 November, Tuesday

    Time Temperature Precipitation Wind Pressure Humidity
    00:00 +11°C° 0 mm 1 mps 721 mmHg 78%
    01:00 +11°C° 0 mm 1 mps 721 mmHg 80%
    02:00 +11°C° 0 mm 1 mps 721 mmHg 79%
    03:00 +11°C° 0 mm 1 mps 721 mmHg 78%
    04:00 +11°C° 0 mm 1 mps 721 mmHg 78%
    05:00 +10°C° 0 mm 1 mps 721 mmHg 77%
    06:00 +10°C° 0 mm 1 mps 721 mmHg 76%
    07:00 +10°C° 0 mm 1 mps 721 mmHg 75%
    08:00 +13°C° 0 mm 1 mps 721 mmHg 67%
    09:00 +15°C° 0 mm 1 mps 722 mmHg 59%
    10:00 +19°C° 0 mm 1 mps 722 mmHg 51%
    11:00 +19°C° 0 mm 1 mps 722 mmHg 48%
    12:00 +20°C° 0 mm 1 mps 722 mmHg 45%
    13:00 +21°C° 0 mm 1 mps 722 mmHg 43%
    14:00 +20°C° 0 mm 1 mps 722 mmHg 49%
    15:00 +18°C° 0 mm 1 mps 722 mmHg 56%
    16:00 +16°C° 0 mm 1 mps 721 mmHg 62%
    17:00 +14°C° 0 mm 0 mps 722 mmHg 66%
    18:00 +13°C° 0 mm 0 mps 722 mmHg 70%
    19:00 +12°C° 0 mm 0 mps 722 mmHg 74%
    20:00 +12°C° 0 mm 1 mps 722 mmHg 76%
    21:00 +12°C° 0 mm 1 mps 722 mmHg 78%
    22:00 +11°C° 0 mm 1 mps 723 mmHg 80%
    23:00 +11°C° 0 mm 1 mps 723 mmHg 84%

    Tomorrow, 14 November, Wednesday

    Time Temperature Precipitation Wind Pressure Humidity
    00:00 +11°C° 0 mm 1 mps 723 mmHg 87%
    01:00 +10°C° 0 mm 1 mps 723 mmHg 91%
    02:00 +10°C° 0 mm 1 mps 723 mmHg 92%
    03:00 +10°C° 0 mm 1 mps 723 mmHg 94%
    04:00 +10°C° 0 mm 1 mps 723 mmHg 95%
    05:00 +10°C° 0 mm 1 mps 723 mmHg 95%
    06:00 +10°C° 0 mm 1 mps 723 mmHg 95%
    07:00 +9°C° 0 mm 1 mps 723 mmHg 95%
    08:00 +11°C° 0 mm 1 mps 723 mmHg 87%
    09:00 +12°C° 0 mm 1 mps 724 mmHg 79%
    10:00 +14°C° 0 mm 1 mps 724 mmHg 71%
    11:00 +14°C° 0 mm 2 mps 724 mmHg 64%
    12:00 +15°C° 0 mm 2 mps 724 mmHg 58%
    13:00 +15°C° 0 mm 2 mps 723 mmHg 51%
    14:00 +14°C° 0 mm 2 mps 723 mmHg 55%
    15:00 +13°C° 0 mm 1 mps 723 mmHg 59%
    16:00 +12°C° 0 mm 1 mps 722 mmHg 63%
    17:00 +11°C° 0 mm 1 mps 722 mmHg 67%
    18:00 +10°C° 0 mm 1 mps 722 mmHg 71%
    19:00 +9°C° 0 mm 1 mps 723 mmHg 74%
    20:00 +9°C° 0 mm 1 mps 723 mmHg 76%
    21:00 +8°C° 0 mm 1 mps 723 mmHg 78%
    22:00 +8°C° 0 mm 1 mps 723 mmHg 79%
    23:00 +7°C° 0 mm 1 mps 722 mmHg 81%

    Day after tomorrow, 15 November, Thursday

    Time Temperature Precipitation Wind Pressure Humidity
    00:00 +7°C° 0 mm 1 mps 722 mmHg 83%
    01:00 +6°C° 0 mm 1 mps 722 mmHg 85%
    02:00 +6°C° 0 mm 1 mps 722 mmHg 86%
    03:00 +6°C° 0 mm 1 mps 722 mmHg 88%
    04:00 +5°C° 0 mm 1 mps 722 mmHg 89%
    05:00 +5°C° 0 mm 1 mps 722 mmHg 90%
    06:00 +5°C° 0 mm 1 mps 722 mmHg 90%
    07:00 +4°C° 0 mm 1 mps 722 mmHg 91%
    08:00 +6°C° 0 mm 1 mps 722 mmHg 81%
    09:00 +8°C° 0 mm 1 mps 722 mmHg 72%
    10:00 +10°C° 0 mm 1 mps 722 mmHg 62%
    11:00 +10°C° 0 mm 2 mps 722 mmHg 58%
    12:00 +10°C° 0 mm 2 mps 722 mmHg 55%
    13:00 +12°C° 0 mm 2 mps 722 mmHg 52%
    14:00 +10°C° 0 mm 2 mps 722 mmHg 57%
    15:00 +9°C° 0 mm 2 mps 721 mmHg 63%
    16:00 +8°C° 0 mm 2 mps 721 mmHg 68%
    17:00 +7°C° 0 mm 2 mps 721 mmHg 74%
    18:00 +7°C° 0 mm 1 mps 722 mmHg 80%
    19:00 +6°C° 0 mm 1 mps 722 mmHg 85%
    20:00 +5°C° 0 mm 1 mps 722 mmHg 85%
    21:00 +5°C° 0 mm 1 mps 722 mmHg 85%
    22:00 +5°C° 0 mm 1 mps 723 mmHg 85%
    23:00 +5°C° 0 mm 1 mps 723 mmHg 85%

    16 November, Friday

    Time Temperature Precipitation Wind Pressure Humidity
    00:00 +5°C° 0 mm 1 mps 723 mmHg 85%
    01:00 +5°C° 0 mm 1 mps 723 mmHg 85%
    02:00 +5°C° 0 mm 1 mps 723 mmHg 86%
    03:00 +4°C° 0 mm 1 mps 723 mmHg 87%
    04:00 +4°C° 0 mm 1 mps 722 mmHg 88%
    05:00 +4°C° 0 mm 1 mps 722 mmHg 89%
    06:00 +4°C° 0 mm 1 mps 723 mmHg 90%
    07:00 +4°C° 0 mm 1 mps 723 mmHg 91%
    08:00 +5°C° 0 mm 1 mps 723 mmHg 85%
    09:00 +5°C° 0 mm 2 mps 723 mmHg 78%
    10:00 +6°C° 0 mm 2 mps 724 mmHg 72%
    11:00 +7°C° 0 mm 2 mps 723 mmHg 69%
    12:00 +7°C° 0 mm 2 mps 723 mmHg 66%
    13:00 +8°C° 0 mm 2 mps 723 mmHg 63%
    14:00 +7°C° 0 mm 2 mps 723 mmHg 66%
    15:00 +7°C° 0 mm 2 mps 723 mmHg 69%
    16:00 +6°C° 0 mm 2 mps 723 mmHg 71%
    17:00 +5°C° 0 mm 2 mps 723 mmHg 75%
    18:00 +5°C° 0 mm 2 mps 723 mmHg 80%
    19:00 +5°C° 0 mm 1 mps 723 mmHg 84%
    20:00 +5°C° 0 mm 1 mps 723 mmHg 86%
    21:00 +4°C° 0 mm 1 mps 723 mmHg 88%
    22:00 +4°C° 0 mm 1 mps 723 mmHg 91%
    23:00 +3°C° 0 mm 1 mps 723 mmHg 91%

    17 November, Saturday

    Time Temperature Precipitation Wind Pressure Humidity
    00:00 +3°C° 0 mm 1 mps 723 mmHg 92%
    01:00 +3°C° 0 mm 1 mps 723 mmHg 93%
    02:00 +3°C° 0 mm 1 mps 723 mmHg 93%
    03:00 +3°C° 0 mm 1 mps 723 mmHg 93%
    04:00 +3°C° 0 mm 1 mps 723 mmHg 93%
    05:00 +3°C° 0 mm 1 mps 723 mmHg 93%
    06:00 +3°C° 0 mm 1 mps 723 mmHg 94%
    07:00 +2°C° 0 mm 1 mps 723 mmHg 94%
    08:00 +4°C° 0 mm 1 mps 723 mmHg 86%
    09:00 +4°C° 0 mm 2 mps 723 mmHg 79%
    10:00 +5°C° 0 mm 2 mps 724 mmHg 71%
    11:00 +6°C° 0 mm 2 mps 723 mmHg 67%
    12:00 +6°C° 0 mm 2 mps 723 mmHg 62%
    13:00 +7°C° 0 mm 3 mps 723 mmHg 58%
    14:00 +5°C° 0 mm 3 mps 723 mmHg 61%
    15:00 +6°C° 0 mm 2 mps 722 mmHg 65%
    16:00 +5°C° 0 mm 2 mps 722 mmHg 68%
    17:00 +4°C° 0 mm 2 mps 722 mmHg 72%
    18:00 +3°C° 0 mm 2 mps 722 mmHg 76%
    19:00 +3°C° 0 mm 2 mps 722 mmHg 80%
    20:00 +2°C° 0 mm 2 mps 722 mmHg 83%
    21:00 +2°C° 0 mm 2 mps 722 mmHg 85%
    22:00 +1°C° 0 mm 2 mps 722 mmHg 87%
    23:00 +2°C° 0 mm 1 mps 721 mmHg 87%

    18 November, Sunday

    Time Temperature Precipitation Wind Pressure Humidity
    00:00 +1°C° 0 mm 1 mps 721 mmHg 87%
    01:00 +1°C° 0 mm 1 mps 721 mmHg 87%
    02:00 +1°C° 0 mm 1 mps 720 mmHg 87%
    03:00 0°C° 0 mm 1 mps 720 mmHg 87%
    04:00 0°C° 0 mm 1 mps 720 mmHg 86%
    05:00 0°C° 0 mm 1 mps 719 mmHg 86%
    06:00 0°C° 0 mm 1 mps 719 mmHg 87%
    07:00 -3°C° 0 mm 2 mps 719 mmHg 87%
    08:00 -1°C° 0 mm 2 mps 719 mmHg 79%
    09:00 +1°C° 0 mm 2 mps 719 mmHg 72%
    10:00 +2°C° 0 mm 3 mps 719 mmHg 64%
    11:00 +2°C° 0 mm 3 mps 718 mmHg 61%
    12:00 +3°C° 0 mm 3 mps 718 mmHg 57%
    13:00 +4°C° 0 mm 4 mps 718 mmHg 54%
    14:00 +4°C° 0 mm 3 mps 717 mmHg 58%
    15:00 +3°C° 0 mm 3 mps 717 mmHg 62%
    16:00 +3°C° 0 mm 2 mps 716 mmHg 66%
    17:00 +2°C° 0 mm 2 mps 716 mmHg 71%
    18:00 +1°C° 0 mm 2 mps 716 mmHg 76%
    19:00 -1°C° 0 mm 2 mps 716 mmHg 82%
    20:00 +1°C° 0 mm 1 mps 715 mmHg 82%
    21:00 +1°C° 0 mm 1 mps 715 mmHg 83%
    22:00 +1°C° 0 mm 1 mps 715 mmHg 84%
    23:00 0°C° 0 mm 1 mps 714 mmHg 85%
    Show more